Regional Weather Roundup
Issued by NWS

Home | Current Version | Previous Version | Text Only | Print | Product List | Glossary On
Versions: 1 2 3 4 5 6 7 8 9 10 11 12 13 14 15 16 17 18 19 20 21 22 23 24 25 26 27 28 29 30 31 32 33 34 35 36 37 38 39 40 41 42 43 44 45 46 47 48 49 50
000
ASCA44 KEWX 231420
RWRMX

LATIN AMERICA AND CARIBBEAN REGIONAL WEATHER ROUNDUP
NATIONAL WEATHER SERVICE AUSTIN/SAN ANTONIO TX
900 AM CDT THU OCT 23 2014

NOTE: "FAIR" INDICATED FEW OR NO CLOUDS BELOW 12,000 FEET WITH NO
SIGNIFICANT WEATHER AND/OR OBSTRUCTIONS TO VISIBILITY.

BAJA CALIFORNIA

CITY           SKY/WX    TMP DP  RH WIND       PRES   REMARKS
MEXICALI       CLEAR     64  48  55 CALM      29.93
TIJUANA        CLEAR     57  48  72 CALM      29.96S

NORTHWESTERN MEXICO

CITY           SKY/WX    TMP DP  RH WIND       PRES   REMARKS
CULIACAN       CLEAR     77  72  83 CALM      29.89
DURANGO        CLOUDY    57  55  94 CALM      30.30
GUAYMAS        CLEAR     72  64  78 CALM      29.84
HERMOSILLO     CLEAR     68  59  73 CALM      29.94
CD. JUAREZ     CLEAR     57  45  62 CALM      30.10
OBREGON        CLEAR     68  61  77 E2        29.86

NORTHEASTERN MEXICO

CITY           SKY/WX    TMP DP  RH WIND       PRES   REMARKS
CHIHUAHUA      CLEAR     52  52 100 S5        30.24
MATAMOROS      MOSUNNY   70  70 100 NW6       30.06
MONCLOVA       DRIZZLE   64  63  94 CALM      30.12R FOG
MONTERREY      CLOUDY    70  68  94 CALM      30.10R
NUEVO LAREDO   CLOUDY    72  63  73 E6        30.09
PIEDRAS NEGRAS PTSUNNY   66  64  94 CALM      30.12R FOG
REYNOSA        MOSUNNY   68  63  83 N6        30.06
SALTILLO       FOG       61  59  94 N6        30.25R VSB 3/4
TORREON        CLOUDY    63  61  94 CALM      30.18R HAZE
CD. VICTORIA   PTSUNNY   72  72 100 N6        30.08

WESTERN MEXICO

CITY           SKY/WX    TMP DP  RH WIND       PRES   REMARKS
AGUASCALIENTES MOSUNNY   55  50  82 NE5       30.30
COLIMA         MOSUNNY   72  64  78 CALM      30.00R
DEL BAJIO      MOSUNNY   61  54  77 CALM      30.31R
GUADALAJARA    MOSUNNY   64  57  77 CALM      30.20
MANZANILLO     MOSUNNY   75  68  78 N6        29.85R
MAZATLAN       MOSUNNY   72  68  88 N8        29.85R
P. VALLARTA    MOSUNNY   77  75  94 CALM      29.86R
URUAPAN        SUNNY     61  59  94 CALM      30.17R

CENTRAL MEXICO

CITY           SKY/WX    TMP DP  RH WIND       PRES   REMARKS
CUERNAVACA     MOSUNNY   66  59  77 CALM      30.15R
MEXICO CITY    MOSUNNY   55  48  76 E9        30.37R
MORELIA        SUNNY     54  52  94 CALM      30.26
POZA RICA      PTSUNNY   72  72 100 N12       30.02R
PUEBLA         MOSUNNY   55  48  76 N9        30.35R
QUERETARO      MOSUNNY   59  54  82 NE8       30.35R
S. LUIS POTOSI CLOUDY    57  55  94 CALM      30.30R
TAMPICO        PTSUNNY   75  73  94 CALM      30.01R
TOLUCA         FOG       46  43  87 CALM      30.40R VSB 1/4

SOUTHERN MEXICO

CITY           SKY/WX    TMP DP  RH WIND       PRES   REMARKS
ACAPULCO       PTSUNNY   79  75  89 NW6       29.87R
B. DE HUATULCO PTSUNNY   73  68  83 CALM      29.90
OAXACA         PTSUNNY   59  59 100 CALM      30.21R
P. ESCONDIDO   MOSUNNY   77  70  78 NE9       30.00R
VERACRUZ       PTSUNNY   77  72  83 N6        29.93R
ZIHUATANEJO    MOSUNNY   81  73  78 CALM      29.88R

YUCATAN PENINSULA

CITY           SKY/WX    TMP DP  RH WIND       PRES   REMARKS
CAMPECHE       PTSUNNY   77  75  94 N7        29.80R
CANCUN         PTSUNNY   75  75 100 NW6       29.82R
CHETUMAL       CLOUDY    77  75  94 N7        29.79R
CD. DEL CARMEN PTSUNNY   79  75  89 NE7       29.81
COZUMEL        CLOUDY    72  72 100 CALM      29.82R
MERIDA         PTSUNNY   77  73  88 CALM      29.83R
MINATITLAN     PTSUNNY   77  59  53 SW12      29.86
TAPACHULA      CLOUDY    79  75  89 CALM      29.89S
TUX. GUTIERREZ PTSUNNY   73  70  88 S3        29.92S FOG
VILLAHERMOSA   CLOUDY    77  75  94 CALM      29.87R

CENTRAL AMERICA

CITY           SKY/WX    TMP DP  RH WIND       PRES   REMARKS
BELIZE CITY    PTSUNNY   79  77  94 NW5       29.81R
MANAGUA        MOSUNNY   81  75  83 CALM      29.89R

CARIBBEAN

CITY           SKY/WX    TMP DP  RH WIND       PRES   REMARKS
ARUBA          MOSUNNY   90  75  62 E16       29.89S HX 100
CURACAO        MOSUNNY   88  77  70 E9        29.92S HX 100
KINGSTON       MOSUNNY   86  75  70 SE13      29.89S HX  95
NASSAU         RAIN      73  70  88 CALM      29.97R
SAN JUAN       MOSUNNY   88  75  66 E7        29.96R HX  97
SANTO DOMINGO  MOSUNNY   82  75  78 E5        29.94R
ST. CROIX      MOSUNNY   90  75  62 E17       29.97  HX 100
ST. KITTS      LGT RAIN  84  77  79 E14       29.97S HX  94
ST. THOMAS     MOSUNNY   86  75  70 SE14      29.96S HX  95

$$




USA.gov is the U.S. government's official web portal to all federal, state and local government web resources and services.